owner,sensor,date,latitude,longitude,relative_humidity,qcFlag 
COMPS,ioos:station:USF.COMPS:EGK:1,2013-12-03T16:00:00Z,27.6010,-82.7510,78.12,1111122 
COMPS,ioos:station:USF.COMPS:EGK:1,2013-12-03T16:06:00Z,27.6010,-82.7510,77.35,1111122 
COMPS,ioos:station:USF.COMPS:EGK:1,2013-12-03T16:12:00Z,27.6010,-82.7510,76.75,1111122 
COMPS,ioos:station:USF.COMPS:EGK:1,2013-12-03T16:18:00Z,27.6010,-82.7510,76.69,1111122 
COMPS,ioos:station:USF.COMPS:EGK:1,2013-12-03T16:24:00Z,27.6010,-82.7510,76.61,1111122 
COMPS,ioos:station:USF.COMPS:EGK:1,2013-12-03T16:30:00Z,27.6010,-82.7510,76.26,1111122 
COMPS,ioos:station:USF.COMPS:EGK:1,2013-12-03T16:36:00Z,27.6010,-82.7510,76.14,1111122 
COMPS,ioos:station:USF.COMPS:EGK:1,2013-12-03T16:42:00Z,27.6010,-82.7510,75.86,1111122 
COMPS,ioos:station:USF.COMPS:EGK:1,2013-12-03T16:48:00Z,27.6010,-82.7510,75.7,1111122 
COMPS,ioos:station:USF.COMPS:EGK:1,2013-12-03T16:54:00Z,27.6010,-82.7510,77.27,1111122 
COMPS,ioos:station:USF.COMPS:EGK:1,2013-12-03T17:00:00Z,27.6010,-82.7510,77.64,1111122 
COMPS,ioos:station:USF.COMPS:EGK:1,2013-12-03T17:06:00Z,27.6010,-82.7510,77.13,1111122 
COMPS,ioos:station:USF.COMPS:EGK:1,2013-12-03T17:12:00Z,27.6010,-82.7510,76.69,1111122 
COMPS,ioos:station:USF.COMPS:EGK:1,2013-12-03T17:18:00Z,27.6010,-82.7510,76.5,1111122 
COMPS,ioos:station:USF.COMPS:EGK:1,2013-12-03T17:24:00Z,27.6010,-82.7510,76.82,1111122 
COMPS,ioos:station:USF.COMPS:EGK:1,2013-12-03T17:30:00Z,27.6010,-82.7510,77.5,1111122 
COMPS,ioos:station:USF.COMPS:EGK:1,2013-12-03T17:36:00Z,27.6010,-82.7510,78.86,1111122 
COMPS,ioos:station:USF.COMPS:EGK:1,2013-12-03T17:42:00Z,27.6010,-82.7510,77.96,1111122 
COMPS,ioos:station:USF.COMPS:EGK:1,2013-12-03T17:48:00Z,27.6010,-82.7510,76.81,1111122 
COMPS,ioos:station:USF.COMPS:EGK:1,2013-12-03T17:54:00Z,27.6010,-82.7510,76.13,1111122 
COMPS,ioos:station:USF.COMPS:EGK:1,2013-12-03T18:00:00Z,27.6010,-82.7510,75.57,1111122 
COMPS,ioos:station:USF.COMPS:EGK:1,2013-12-03T18:06:00Z,27.6010,-82.7510,75.95,1111122 
COMPS,ioos:station:USF.COMPS:EGK:1,2013-12-03T18:12:00Z,27.6010,-82.7510,75.65,1111122 
COMPS,ioos:station:USF.COMPS:EGK:1,2013-12-03T18:18:00Z,27.6010,-82.7510,76.64,1111122 
COMPS,ioos:station:USF.COMPS:EGK:1,2013-12-03T18:24:00Z,27.6010,-82.7510,77.21,1111122 
COMPS,ioos:station:USF.COMPS:EGK:1,2013-12-03T18:30:00Z,27.6010,-82.7510,77.69,1111122 
COMPS,ioos:station:USF.COMPS:EGK:1,2013-12-03T18:36:00Z,27.6010,-82.7510,78.9,1111122 
COMPS,ioos:station:USF.COMPS:EGK:1,2013-12-03T18:42:00Z,27.6010,-82.7510,79.6,1111122 
COMPS,ioos:station:USF.COMPS:EGK:1,2013-12-03T18:48:00Z,27.6010,-82.7510,80.79,1111122 
COMPS,ioos:station:USF.COMPS:EGK:1,2013-12-03T18:54:00Z,27.6010,-82.7510,83.39,1111122 
COMPS,ioos:station:USF.COMPS:EGK:1,2013-12-03T19:00:00Z,27.6010,-82.7510,83.58,1111122 
COMPS,ioos:station:USF.COMPS:EGK:1,2013-12-03T19:06:00Z,27.6010,-82.7510,83.45,1111122 
COMPS,ioos:station:USF.COMPS:EGK:1,2013-12-03T19:12:00Z,27.6010,-82.7510,84.51,1111122 
COMPS,ioos:station:USF.COMPS:EGK:1,2013-12-03T19:18:00Z,27.6010,-82.7510,85.47,1111122 
COMPS,ioos:station:USF.COMPS:EGK:1,2013-12-03T19:24:00Z,27.6010,-82.7510,85.55,1111122 
COMPS,ioos:station:USF.COMPS:EGK:1,2013-12-03T19:30:00Z,27.6010,-82.7510,84.89,1111122 
COMPS,ioos:station:USF.COMPS:EGK:1,2013-12-03T19:36:00Z,27.6010,-82.7510,84.38,1111122 
COMPS,ioos:station:USF.COMPS:EGK:1,2013-12-03T19:42:00Z,27.6010,-82.7510,84.72,1111122 
COMPS,ioos:station:USF.COMPS:EGK:1,2013-12-03T19:48:00Z,27.6010,-82.7510,85.39,1111122 
COMPS,ioos:station:USF.COMPS:EGK:1,2013-12-03T19:54:00Z,27.6010,-82.7510,85.15,1111122 
COMPS,ioos:station:USF.COMPS:EGK:1,2013-12-03T20:00:00Z,27.6010,-82.7510,85.05,1111122 
COMPS,ioos:station:USF.COMPS:EGK:1,2013-12-03T20:06:00Z,27.6010,-82.7510,85.9,1111122 
COMPS,ioos:station:USF.COMPS:EGK:1,2013-12-03T20:12:00Z,27.6010,-82.7510,85.23,1111122 
COMPS,ioos:station:USF.COMPS:EGK:1,2013-12-03T20:18:00Z,27.6010,-82.7510,82.94,1111122 
COMPS,ioos:station:USF.COMPS:EGK:1,2013-12-03T20:24:00Z,27.6010,-82.7510,83.64,1111122 
COMPS,ioos:station:USF.COMPS:EGK:1,2013-12-03T20:30:00Z,27.6010,-82.7510,84.28,1111122 
COMPS,ioos:station:USF.COMPS:EGK:1,2013-12-03T20:36:00Z,27.6010,-82.7510,84.14,1111122 
COMPS,ioos:station:USF.COMPS:EGK:1,2013-12-03T20:42:00Z,27.6010,-82.7510,84.12,1111122 
COMPS,ioos:station:USF.COMPS:EGK:1,2013-12-03T20:48:00Z,27.6010,-82.7510,84.53,1111122 
COMPS,ioos:station:USF.COMPS:EGK:1,2013-12-03T20:54:00Z,27.6010,-82.7510,84.99,1111122 
COMPS,ioos:station:USF.COMPS:EGK:1,2013-12-03T21:00:00Z,27.6010,-82.7510,84.99,1111122 
COMPS,ioos:station:USF.COMPS:EGK:1,2013-12-03T21:06:00Z,27.6010,-82.7510,85.24,1111122 
COMPS,ioos:station:USF.COMPS:EGK:1,2013-12-03T21:12:00Z,27.6010,-82.7510,85.98,1111122 
COMPS,ioos:station:USF.COMPS:EGK:1,2013-12-03T21:18:00Z,27.6010,-82.7510,86.58,1111122 
COMPS,ioos:station:USF.COMPS:EGK:1,2013-12-03T21:24:00Z,27.6010,-82.7510,87.08,1111122 
COMPS,ioos:station:USF.COMPS:EGK:1,2013-12-03T21:30:00Z,27.6010,-82.7510,87.08,1111122 
COMPS,ioos:station:USF.COMPS:EGK:1,2013-12-03T21:36:00Z,27.6010,-82.7510,86.91,1111122 
COMPS,ioos:station:USF.COMPS:EGK:1,2013-12-03T21:42:00Z,27.6010,-82.7510,86.94,1111122 
COMPS,ioos:station:USF.COMPS:EGK:1,2013-12-03T21:48:00Z,27.6010,-82.7510,87.31,1111122 
COMPS,ioos:station:USF.COMPS:EGK:1,2013-12-03T21:54:00Z,27.6010,-82.7510,88.11,1111122 
COMPS,ioos:station:USF.COMPS:EGK:1,2013-12-03T22:00:00Z,27.6010,-82.7510,88.62,1111122 
COMPS,ioos:station:USF.COMPS:EGK:1,2013-12-03T22:06:00Z,27.6010,-82.7510,89.0,1111122 
COMPS,ioos:station:USF.COMPS:EGK:1,2013-12-03T22:12:00Z,27.6010,-82.7510,89.38,1111122 
COMPS,ioos:station:USF.COMPS:EGK:1,2013-12-03T22:18:00Z,27.6010,-82.7510,89.72,1111122 
COMPS,ioos:station:USF.COMPS:EGK:1,2013-12-03T22:24:00Z,27.6010,-82.7510,89.67,1111122 
COMPS,ioos:station:USF.COMPS:EGK:1,2013-12-03T22:30:00Z,27.6010,-82.7510,89.66,1111122 
COMPS,ioos:station:USF.COMPS:EGK:1,2013-12-03T22:36:00Z,27.6010,-82.7510,89.7,1111122 
COMPS,ioos:station:USF.COMPS:EGK:1,2013-12-03T22:42:00Z,27.6010,-82.7510,90.1,1111122 
COMPS,ioos:station:USF.COMPS:EGK:1,2013-12-03T22:48:00Z,27.6010,-82.7510,90.38,1111122 
COMPS,ioos:station:USF.COMPS:EGK:1,2013-12-03T22:54:00Z,27.6010,-82.7510,90.41,1111122 
COMPS,ioos:station:USF.COMPS:EGK:1,2013-12-03T23:00:00Z,27.6010,-82.7510,90.57,1111122 
COMPS,ioos:station:USF.COMPS:EGK:1,2013-12-03T23:06:00Z,27.6010,-82.7510,90.93,1111122 
COMPS,ioos:station:USF.COMPS:EGK:1,2013-12-03T23:12:00Z,27.6010,-82.7510,91.16,1111122 
COMPS,ioos:station:USF.COMPS:EGK:1,2013-12-03T23:18:00Z,27.6010,-82.7510,91.11,1111122 
COMPS,ioos:station:USF.COMPS:EGK:1,2013-12-03T23:24:00Z,27.6010,-82.7510,91.21,1111122 
COMPS,ioos:station:USF.COMPS:EGK:1,2013-12-03T23:30:00Z,27.6010,-82.7510,91.37,1111122 
COMPS,ioos:station:USF.COMPS:EGK:1,2013-12-03T23:36:00Z,27.6010,-82.7510,91.63,1111122 
COMPS,ioos:station:USF.COMPS:EGK:1,2013-12-03T23:42:00Z,27.6010,-82.7510,91.75,1111122 
COMPS,ioos:station:USF.COMPS:EGK:1,2013-12-03T23:48:00Z,27.6010,-82.7510,91.93,1111122 
COMPS,ioos:station:USF.COMPS:EGK:1,2013-12-03T23:54:00Z,27.6010,-82.7510,92.07,1111122 
COMPS,ioos:station:USF.COMPS:EGK:1,2013-12-04T00:00:00Z,27.6010,-82.7510,92.1,1111122 
COMPS,ioos:station:USF.COMPS:EGK:1,2013-12-04T00:06:00Z,27.6010,-82.7510,92.02,1111122 
COMPS,ioos:station:USF.COMPS:EGK:1,2013-12-04T00:12:00Z,27.6010,-82.7510,91.94,1111122 
COMPS,ioos:station:USF.COMPS:EGK:1,2013-12-04T00:18:00Z,27.6010,-82.7510,91.89,1111122 
COMPS,ioos:station:USF.COMPS:EGK:1,2013-12-04T00:24:00Z,27.6010,-82.7510,92.0,1111122 
COMPS,ioos:station:USF.COMPS:EGK:1,2013-12-04T00:30:00Z,27.6010,-82.7510,92.37,1111122 
COMPS,ioos:station:USF.COMPS:EGK:1,2013-12-04T00:36:00Z,27.6010,-82.7510,92.35,1111122 
COMPS,ioos:station:USF.COMPS:EGK:1,2013-12-04T00:42:00Z,27.6010,-82.7510,92.46,1111122 
COMPS,ioos:station:USF.COMPS:EGK:1,2013-12-04T00:48:00Z,27.6010,-82.7510,92.47,1111122 
COMPS,ioos:station:USF.COMPS:EGK:1,2013-12-04T00:54:00Z,27.6010,-82.7510,92.44,1111122 
COMPS,ioos:station:USF.COMPS:EGK:1,2013-12-04T01:00:00Z,27.6010,-82.7510,92.15,1111122 
COMPS,ioos:station:USF.COMPS:EGK:1,2013-12-04T01:06:00Z,27.6010,-82.7510,92.19,1111122 
COMPS,ioos:station:USF.COMPS:EGK:1,2013-12-04T01:12:00Z,27.6010,-82.7510,92.21,1111122 
COMPS,ioos:station:USF.COMPS:EGK:1,2013-12-04T01:18:00Z,27.6010,-82.7510,92.41,1111122 
COMPS,ioos:station:USF.COMPS:EGK:1,2013-12-04T01:24:00Z,27.6010,-82.7510,92.48,1111122 
COMPS,ioos:station:USF.COMPS:EGK:1,2013-12-04T01:30:00Z,27.6010,-82.7510,92.43,1111122 
COMPS,ioos:station:USF.COMPS:EGK:1,2013-12-04T01:36:00Z,27.6010,-82.7510,92.35,1111122 
COMPS,ioos:station:USF.COMPS:EGK:1,2013-12-04T01:42:00Z,27.6010,-82.7510,92.29,1111122 
COMPS,ioos:station:USF.COMPS:EGK:1,2013-12-04T01:48:00Z,27.6010,-82.7510,92.28,1111122 
COMPS,ioos:station:USF.COMPS:EGK:1,2013-12-04T01:54:00Z,27.6010,-82.7510,92.04,1111122 
COMPS,ioos:station:USF.COMPS:EGK:1,2013-12-04T02:00:00Z,27.6010,-82.7510,92.11,1111122 
COMPS,ioos:station:USF.COMPS:EGK:1,2013-12-04T02:06:00Z,27.6010,-82.7510,91.74,1111122 
COMPS,ioos:station:USF.COMPS:EGK:1,2013-12-04T02:12:00Z,27.6010,-82.7510,91.56,1111122 
COMPS,ioos:station:USF.COMPS:EGK:1,2013-12-04T02:18:00Z,27.6010,-82.7510,90.91,1111122 
COMPS,ioos:station:USF.COMPS:EGK:1,2013-12-04T02:24:00Z,27.6010,-82.7510,90.62,1111122 
COMPS,ioos:station:USF.COMPS:EGK:1,2013-12-04T02:30:00Z,27.6010,-82.7510,90.88,1111122 
COMPS,ioos:station:USF.COMPS:EGK:1,2013-12-04T02:36:00Z,27.6010,-82.7510,91.16,1111122 
COMPS,ioos:station:USF.COMPS:EGK:1,2013-12-04T02:42:00Z,27.6010,-82.7510,91.38,1111122 
COMPS,ioos:station:USF.COMPS:EGK:1,2013-12-04T02:48:00Z,27.6010,-82.7510,91.49,1111122 
COMPS,ioos:station:USF.COMPS:EGK:1,2013-12-04T02:54:00Z,27.6010,-82.7510,91.61,1111122 
COMPS,ioos:station:USF.COMPS:EGK:1,2013-12-04T03:00:00Z,27.6010,-82.7510,91.75,1111122 
COMPS,ioos:station:USF.COMPS:EGK:1,2013-12-04T03:06:00Z,27.6010,-82.7510,91.9,1111122 
COMPS,ioos:station:USF.COMPS:EGK:1,2013-12-04T03:12:00Z,27.6010,-82.7510,92.06,1111122 
COMPS,ioos:station:USF.COMPS:EGK:1,2013-12-04T03:18:00Z,27.6010,-82.7510,92.22,1111122 
COMPS,ioos:station:USF.COMPS:EGK:1,2013-12-04T03:24:00Z,27.6010,-82.7510,92.42,1111122 
COMPS,ioos:station:USF.COMPS:EGK:1,2013-12-04T03:30:00Z,27.6010,-82.7510,92.56,1111122 
COMPS,ioos:station:USF.COMPS:EGK:1,2013-12-04T03:36:00Z,27.6010,-82.7510,92.41,1111122 
COMPS,ioos:station:USF.COMPS:EGK:1,2013-12-04T03:42:00Z,27.6010,-82.7510,92.41,1111122 
COMPS,ioos:station:USF.COMPS:EGK:1,2013-12-04T03:48:00Z,27.6010,-82.7510,92.41,1111122 
COMPS,ioos:station:USF.COMPS:EGK:1,2013-12-04T03:54:00Z,27.6010,-82.7510,92.46,1111122 
COMPS,ioos:station:USF.COMPS:EGK:1,2013-12-04T04:00:00Z,27.6010,-82.7510,92.35,1111122 
COMPS,ioos:station:USF.COMPS:EGK:1,2013-12-04T04:06:00Z,27.6010,-82.7510,92.28,1111122 
COMPS,ioos:station:USF.COMPS:EGK:1,2013-12-04T04:12:00Z,27.6010,-82.7510,92.27,1111122 
COMPS,ioos:station:USF.COMPS:EGK:1,2013-12-04T04:18:00Z,27.6010,-82.7510,92.23,1111122 
COMPS,ioos:station:USF.COMPS:EGK:1,2013-12-04T04:24:00Z,27.6010,-82.7510,92.09,1111122 
COMPS,ioos:station:USF.COMPS:EGK:1,2013-12-04T04:30:00Z,27.6010,-82.7510,91.92,1111122 
COMPS,ioos:station:USF.COMPS:EGK:1,2013-12-04T04:36:00Z,27.6010,-82.7510,91.68,1111122 
COMPS,ioos:station:USF.COMPS:EGK:1,2013-12-04T04:42:00Z,27.6010,-82.7510,91.5,1111122 
COMPS,ioos:station:USF.COMPS:EGK:1,2013-12-04T04:48:00Z,27.6010,-82.7510,91.33,1111122 
COMPS,ioos:station:USF.COMPS:EGK:1,2013-12-04T04:54:00Z,27.6010,-82.7510,90.86,1111122 
COMPS,ioos:station:USF.COMPS:EGK:1,2013-12-04T05:00:00Z,27.6010,-82.7510,90.91,1111122 
COMPS,ioos:station:USF.COMPS:EGK:1,2013-12-04T05:06:00Z,27.6010,-82.7510,90.93,1111122 
COMPS,ioos:station:USF.COMPS:EGK:1,2013-12-04T05:12:00Z,27.6010,-82.7510,91.49,1111122 
COMPS,ioos:station:USF.COMPS:EGK:1,2013-12-04T05:18:00Z,27.6010,-82.7510,91.35,1111122 
COMPS,ioos:station:USF.COMPS:EGK:1,2013-12-04T05:24:00Z,27.6010,-82.7510,91.61,1111122 
COMPS,ioos:station:USF.COMPS:EGK:1,2013-12-04T05:30:00Z,27.6010,-82.7510,91.62,1111122 
COMPS,ioos:station:USF.COMPS:EGK:1,2013-12-04T05:36:00Z,27.6010,-82.7510,91.78,1111122 
COMPS,ioos:station:USF.COMPS:EGK:1,2013-12-04T05:42:00Z,27.6010,-82.7510,91.81,1111122 
COMPS,ioos:station:USF.COMPS:EGK:1,2013-12-04T05:48:00Z,27.6010,-82.7510,91.86,1111122 
COMPS,ioos:station:USF.COMPS:EGK:1,2013-12-04T05:54:00Z,27.6010,-82.7510,92.03,1111122 
COMPS,ioos:station:USF.COMPS:EGK:1,2013-12-04T06:00:00Z,27.6010,-82.7510,91.97,1111122 
COMPS,ioos:station:USF.COMPS:EGK:1,2013-12-04T06:06:00Z,27.6010,-82.7510,91.38,1111122 
COMPS,ioos:station:USF.COMPS:EGK:1,2013-12-04T06:12:00Z,27.6010,-82.7510,91.52,1111122 
COMPS,ioos:station:USF.COMPS:EGK:1,2013-12-04T06:18:00Z,27.6010,-82.7510,91.64,1111122 
COMPS,ioos:station:USF.COMPS:EGK:1,2013-12-04T06:24:00Z,27.6010,-82.7510,91.8,1111122 
COMPS,ioos:station:USF.COMPS:EGK:1,2013-12-04T06:30:00Z,27.6010,-82.7510,91.79,1111122 
COMPS,ioos:station:USF.COMPS:EGK:1,2013-12-04T06:36:00Z,27.6010,-82.7510,91.71,1111122 
COMPS,ioos:station:USF.COMPS:EGK:1,2013-12-04T06:42:00Z,27.6010,-82.7510,92.11,1111122 
COMPS,ioos:station:USF.COMPS:EGK:1,2013-12-04T06:48:00Z,27.6010,-82.7510,92.24,1111122 
COMPS,ioos:station:USF.COMPS:EGK:1,2013-12-04T06:54:00Z,27.6010,-82.7510,92.54,1111122 
COMPS,ioos:station:USF.COMPS:EGK:1,2013-12-04T07:00:00Z,27.6010,-82.7510,92.56,1111122 
COMPS,ioos:station:USF.COMPS:EGK:1,2013-12-04T07:06:00Z,27.6010,-82.7510,92.61,1111122 
COMPS,ioos:station:USF.COMPS:EGK:1,2013-12-04T07:12:00Z,27.6010,-82.7510,92.69,1111122 
COMPS,ioos:station:USF.COMPS:EGK:1,2013-12-04T07:18:00Z,27.6010,-82.7510,92.72,1111122 
COMPS,ioos:station:USF.COMPS:EGK:1,2013-12-04T07:24:00Z,27.6010,-82.7510,92.82,1111122 
COMPS,ioos:station:USF.COMPS:EGK:1,2013-12-04T07:30:00Z,27.6010,-82.7510,92.81,1111122 
COMPS,ioos:station:USF.COMPS:EGK:1,2013-12-04T07:36:00Z,27.6010,-82.7510,93.02,1111122 
COMPS,ioos:station:USF.COMPS:EGK:1,2013-12-04T07:42:00Z,27.6010,-82.7510,93.1,1111122 
COMPS,ioos:station:USF.COMPS:EGK:1,2013-12-04T07:48:00Z,27.6010,-82.7510,93.19,1111122 
COMPS,ioos:station:USF.COMPS:EGK:1,2013-12-04T07:54:00Z,27.6010,-82.7510,93.21,1111122 
COMPS,ioos:station:USF.COMPS:EGK:1,2013-12-04T08:00:00Z,27.6010,-82.7510,93.43,1111122 
COMPS,ioos:station:USF.COMPS:EGK:1,2013-12-04T08:06:00Z,27.6010,-82.7510,93.59,1111122 
COMPS,ioos:station:USF.COMPS:EGK:1,2013-12-04T08:12:00Z,27.6010,-82.7510,93.83,1111122 
COMPS,ioos:station:USF.COMPS:EGK:1,2013-12-04T08:18:00Z,27.6010,-82.7510,93.67,1111122 
COMPS,ioos:station:USF.COMPS:EGK:1,2013-12-04T08:24:00Z,27.6010,-82.7510,93.7,1111122 
COMPS,ioos:station:USF.COMPS:EGK:1,2013-12-04T08:30:00Z,27.6010,-82.7510,93.86,1111122 
COMPS,ioos:station:USF.COMPS:EGK:1,2013-12-04T08:36:00Z,27.6010,-82.7510,94.17,1111122 
COMPS,ioos:station:USF.COMPS:EGK:1,2013-12-04T08:42:00Z,27.6010,-82.7510,94.24,1111122 
COMPS,ioos:station:USF.COMPS:EGK:1,2013-12-04T08:48:00Z,27.6010,-82.7510,94.34,1111122 
COMPS,ioos:station:USF.COMPS:EGK:1,2013-12-04T08:54:00Z,27.6010,-82.7510,94.62,1111122 
COMPS,ioos:station:USF.COMPS:EGK:1,2013-12-04T09:00:00Z,27.6010,-82.7510,94.6,1111122 
COMPS,ioos:station:USF.COMPS:EGK:1,2013-12-04T09:06:00Z,27.6010,-82.7510,94.68,1111122 
COMPS,ioos:station:USF.COMPS:EGK:1,2013-12-04T09:12:00Z,27.6010,-82.7510,94.72,1111122 
COMPS,ioos:station:USF.COMPS:EGK:1,2013-12-04T09:18:00Z,27.6010,-82.7510,94.81,1111122 
COMPS,ioos:station:USF.COMPS:EGK:1,2013-12-04T09:24:00Z,27.6010,-82.7510,94.86,1111122 
COMPS,ioos:station:USF.COMPS:EGK:1,2013-12-04T09:30:00Z,27.6010,-82.7510,95.25,1111122 
COMPS,ioos:station:USF.COMPS:EGK:1,2013-12-04T09:36:00Z,27.6010,-82.7510,95.05,1111122 
COMPS,ioos:station:USF.COMPS:EGK:1,2013-12-04T09:42:00Z,27.6010,-82.7510,95.12,1111122 
COMPS,ioos:station:USF.COMPS:EGK:1,2013-12-04T09:48:00Z,27.6010,-82.7510,95.53,1111122 
COMPS,ioos:station:USF.COMPS:EGK:1,2013-12-04T09:54:00Z,27.6010,-82.7510,95.82,1111122 
COMPS,ioos:station:USF.COMPS:EGK:1,2013-12-04T10:00:00Z,27.6010,-82.7510,95.79,1111122 
COMPS,ioos:station:USF.COMPS:EGK:1,2013-12-04T10:06:00Z,27.6010,-82.7510,95.98,1111122 
COMPS,ioos:station:USF.COMPS:EGK:1,2013-12-04T10:12:00Z,27.6010,-82.7510,96.05,1111122 
COMPS,ioos:station:USF.COMPS:EGK:1,2013-12-04T10:18:00Z,27.6010,-82.7510,96.24,1111122 
COMPS,ioos:station:USF.COMPS:EGK:1,2013-12-04T10:24:00Z,27.6010,-82.7510,96.31,1111122 
COMPS,ioos:station:USF.COMPS:EGK:1,2013-12-04T10:30:00Z,27.6010,-82.7510,96.39,1111122 
COMPS,ioos:station:USF.COMPS:EGK:1,2013-12-04T10:36:00Z,27.6010,-82.7510,96.37,1111122 
COMPS,ioos:station:USF.COMPS:EGK:1,2013-12-04T10:42:00Z,27.6010,-82.7510,96.52,1111122 
COMPS,ioos:station:USF.COMPS:EGK:1,2013-12-04T10:48:00Z,27.6010,-82.7510,96.9,1111122 
COMPS,ioos:station:USF.COMPS:EGK:1,2013-12-04T10:54:00Z,27.6010,-82.7510,96.75,1111122 
COMPS,ioos:station:USF.COMPS:EGK:1,2013-12-04T11:00:00Z,27.6010,-82.7510,96.73,1111122 
COMPS,ioos:station:USF.COMPS:EGK:1,2013-12-04T11:06:00Z,27.6010,-82.7510,96.55,1111122 
COMPS,ioos:station:USF.COMPS:EGK:1,2013-12-04T11:12:00Z,27.6010,-82.7510,96.73,1111122 
COMPS,ioos:station:USF.COMPS:EGK:1,2013-12-04T11:18:00Z,27.6010,-82.7510,97.05,1111122 
COMPS,ioos:station:USF.COMPS:EGK:1,2013-12-04T11:24:00Z,27.6010,-82.7510,97.13,1111122 
COMPS,ioos:station:USF.COMPS:EGK:1,2013-12-04T11:30:00Z,27.6010,-82.7510,97.1,1111122 
COMPS,ioos:station:USF.COMPS:EGK:1,2013-12-04T11:36:00Z,27.6010,-82.7510,97.08,1111122 
COMPS,ioos:station:USF.COMPS:EGK:1,2013-12-04T11:42:00Z,27.6010,-82.7510,97.16,1111122 
COMPS,ioos:station:USF.COMPS:EGK:1,2013-12-04T11:48:00Z,27.6010,-82.7510,97.22,1111122 
COMPS,ioos:station:USF.COMPS:EGK:1,2013-12-04T11:54:00Z,27.6010,-82.7510,97.21,1111122 
COMPS,ioos:station:USF.COMPS:EGK:1,2013-12-04T12:00:00Z,27.6010,-82.7510,97.42,1111122 
COMPS,ioos:station:USF.COMPS:EGK:1,2013-12-04T12:06:00Z,27.6010,-82.7510,97.44,1111122 
COMPS,ioos:station:USF.COMPS:EGK:1,2013-12-04T12:12:00Z,27.6010,-82.7510,97.31,1111122 
COMPS,ioos:station:USF.COMPS:EGK:1,2013-12-04T12:18:00Z,27.6010,-82.7510,97.37,1111122 
COMPS,ioos:station:USF.COMPS:EGK:1,2013-12-04T12:24:00Z,27.6010,-82.7510,97.25,1111122 
COMPS,ioos:station:USF.COMPS:EGK:1,2013-12-04T12:30:00Z,27.6010,-82.7510,97.32,1111122 
COMPS,ioos:station:USF.COMPS:EGK:1,2013-12-04T12:36:00Z,27.6010,-82.7510,96.62,1111122 
COMPS,ioos:station:USF.COMPS:EGK:1,2013-12-04T12:42:00Z,27.6010,-82.7510,96.47,1111122 
COMPS,ioos:station:USF.COMPS:EGK:1,2013-12-04T12:48:00Z,27.6010,-82.7510,96.31,1111122 
COMPS,ioos:station:USF.COMPS:EGK:1,2013-12-04T12:54:00Z,27.6010,-82.7510,96.16,1111122 
COMPS,ioos:station:USF.COMPS:EGK:1,2013-12-04T13:00:00Z,27.6010,-82.7510,95.86,1111122 
COMPS,ioos:station:USF.COMPS:EGK:1,2013-12-04T13:06:00Z,27.6010,-82.7510,95.44,1111122 
COMPS,ioos:station:USF.COMPS:EGK:1,2013-12-04T13:12:00Z,27.6010,-82.7510,94.94,1111122 
COMPS,ioos:station:USF.COMPS:EGK:1,2013-12-04T13:18:00Z,27.6010,-82.7510,94.4,1111122 
COMPS,ioos:station:USF.COMPS:EGK:1,2013-12-04T13:24:00Z,27.6010,-82.7510,94.2,1111122 
COMPS,ioos:station:USF.COMPS:EGK:1,2013-12-04T13:30:00Z,27.6010,-82.7510,93.82,1111122 
COMPS,ioos:station:USF.COMPS:EGK:1,2013-12-04T13:36:00Z,27.6010,-82.7510,93.54,1111122 
COMPS,ioos:station:USF.COMPS:EGK:1,2013-12-04T13:42:00Z,27.6010,-82.7510,93.33,1111122 
COMPS,ioos:station:USF.COMPS:EGK:1,2013-12-04T13:48:00Z,27.6010,-82.7510,93.24,1111122 
COMPS,ioos:station:USF.COMPS:EGK:1,2013-12-04T13:54:00Z,27.6010,-82.7510,92.92,1111122 
COMPS,ioos:station:USF.COMPS:EGK:1,2013-12-04T14:00:00Z,27.6010,-82.7510,92.7,1111122 
COMPS,ioos:station:USF.COMPS:EGK:1,2013-12-04T14:06:00Z,27.6010,-82.7510,92.49,1111122 
COMPS,ioos:station:USF.COMPS:EGK:1,2013-12-04T14:12:00Z,27.6010,-82.7510,92.48,1111122 
COMPS,ioos:station:USF.COMPS:EGK:1,2013-12-04T14:18:00Z,27.6010,-82.7510,92.18,1111122 
COMPS,ioos:station:USF.COMPS:EGK:1,2013-12-04T14:24:00Z,27.6010,-82.7510,91.93,1111122 
COMPS,ioos:station:USF.COMPS:EGK:1,2013-12-04T14:30:00Z,27.6010,-82.7510,91.83,1111122 
COMPS,ioos:station:USF.COMPS:EGK:1,2013-12-04T14:36:00Z,27.6010,-82.7510,91.84,1111122 
COMPS,ioos:station:USF.COMPS:EGK:1,2013-12-04T14:42:00Z,27.6010,-82.7510,91.74,1111122 
COMPS,ioos:station:USF.COMPS:EGK:1,2013-12-04T14:48:00Z,27.6010,-82.7510,91.59,1111122 
COMPS,ioos:station:USF.COMPS:EGK:1,2013-12-04T14:54:00Z,27.6010,-82.7510,91.51,1111122 
COMPS,ioos:station:USF.COMPS:EGK:1,2013-12-04T15:00:00Z,27.6010,-82.7510,91.3,1111122 
COMPS,ioos:station:USF.COMPS:EGK:1,2013-12-04T15:06:00Z,27.6010,-82.7510,91.36,1111122 
COMPS,ioos:station:USF.COMPS:EGK:1,2013-12-04T15:12:00Z,27.6010,-82.7510,90.92,1111122 
COMPS,ioos:station:USF.COMPS:EGK:1,2013-12-04T15:18:00Z,27.6010,-82.7510,90.48,1111122 
COMPS,ioos:station:USF.COMPS:EGK:1,2013-12-04T15:24:00Z,27.6010,-82.7510,90.14,1111122 
COMPS,ioos:station:USF.COMPS:EGK:1,2013-12-04T15:30:00Z,27.6010,-82.7510,89.83,1111122 
COMPS,ioos:station:USF.COMPS:EGK:1,2013-12-04T15:36:00Z,27.6010,-82.7510,89.79,1111122 
COMPS,ioos:station:USF.COMPS:EGK:1,2013-12-04T15:42:00Z,27.6010,-82.7510,89.72,1111122 
COMPS,ioos:station:USF.COMPS:EGK:1,2013-12-04T15:48:00Z,27.6010,-82.7510,89.64,1111122 
COMPS,ioos:station:USF.COMPS:EGK:1,2013-12-04T15:54:00Z,27.6010,-82.7510,89.88,1111122 
COMPS,ioos:station:USF.COMPS:EGK:1,2013-12-04T16:00:00Z,27.6010,-82.7510,89.93,1111122 
COMPS,ioos:station:USF.COMPS:EGK:1,2013-12-04T16:06:00Z,27.6010,-82.7510,89.57,1111122 
COMPS,ioos:station:USF.COMPS:EGK:1,2013-12-04T16:12:00Z,27.6010,-82.7510,89.29,1111122 
COMPS,ioos:station:USF.COMPS:EGK:1,2013-12-04T16:18:00Z,27.6010,-82.7510,88.96,1111122 
COMPS,ioos:station:USF.COMPS:EGK:1,2013-12-04T16:24:00Z,27.6010,-82.7510,88.78,1111122 
COMPS,ioos:station:USF.COMPS:EGK:1,2013-12-04T16:30:00Z,27.6010,-82.7510,87.72,1111122 
COMPS,ioos:station:USF.COMPS:EGK:1,2013-12-04T16:36:00Z,27.6010,-82.7510,86.29,1111122 
COMPS,ioos:station:USF.COMPS:EGK:1,2013-12-04T16:42:00Z,27.6010,-82.7510,86.59,1111122 
COMPS,ioos:station:USF.COMPS:EGK:1,2013-12-04T16:48:00Z,27.6010,-82.7510,85.38,1111122 
COMPS,ioos:station:USF.COMPS:EGK:1,2013-12-04T16:54:00Z,27.6010,-82.7510,84.16,1111122 
COMPS,ioos:station:USF.COMPS:EGK:1,2013-12-04T17:00:00Z,27.6010,-82.7510,82.28,1111122 
COMPS,ioos:station:USF.COMPS:EGK:1,2013-12-04T17:06:00Z,27.6010,-82.7510,82.14,1111122 
COMPS,ioos:station:USF.COMPS:EGK:1,2013-12-04T17:12:00Z,27.6010,-82.7510,82.22,1111122 
COMPS,ioos:station:USF.COMPS:EGK:1,2013-12-04T17:18:00Z,27.6010,-82.7510,81.62,1111122 
COMPS,ioos:station:USF.COMPS:EGK:1,2013-12-04T17:24:00Z,27.6010,-82.7510,81.06,1111122 
COMPS,ioos:station:USF.COMPS:EGK:1,2013-12-04T17:30:00Z,27.6010,-82.7510,81.25,1111122 
COMPS,ioos:station:USF.COMPS:EGK:1,2013-12-04T17:36:00Z,27.6010,-82.7510,82.96,1111122 
COMPS,ioos:station:USF.COMPS:EGK:1,2013-12-04T17:42:00Z,27.6010,-82.7510,84.06,1111122 
COMPS,ioos:station:USF.COMPS:EGK:1,2013-12-04T17:48:00Z,27.6010,-82.7510,83.91,1111122 
COMPS,ioos:station:USF.COMPS:EGK:1,2013-12-04T17:54:00Z,27.6010,-82.7510,83.44,1111122 
COMPS,ioos:station:USF.COMPS:EGK:1,2013-12-04T18:00:00Z,27.6010,-82.7510,81.3,1111122 
COMPS,ioos:station:USF.COMPS:EGK:1,2013-12-04T18:06:00Z,27.6010,-82.7510,80.97,1111122 
COMPS,ioos:station:USF.COMPS:EGK:1,2013-12-04T18:12:00Z,27.6010,-82.7510,80.33,1111122 
COMPS,ioos:station:USF.COMPS:EGK:1,2013-12-04T18:18:00Z,27.6010,-82.7510,79.91,1111122 
COMPS,ioos:station:USF.COMPS:EGK:1,2013-12-04T18:24:00Z,27.6010,-82.7510,80.79,1111122 
COMPS,ioos:station:USF.COMPS:EGK:1,2013-12-04T18:30:00Z,27.6010,-82.7510,80.63,1111122 
COMPS,ioos:station:USF.COMPS:EGK:1,2013-12-04T18:36:00Z,27.6010,-82.7510,80.7,1111122 
COMPS,ioos:station:USF.COMPS:EGK:1,2013-12-04T18:42:00Z,27.6010,-82.7510,80.81,1111122 
COMPS,ioos:station:USF.COMPS:EGK:1,2013-12-04T18:48:00Z,27.6010,-82.7510,80.62,1111122 
COMPS,ioos:station:USF.COMPS:EGK:1,2013-12-04T18:54:00Z,27.6010,-82.7510,81.21,1111122 
COMPS,ioos:station:USF.COMPS:EGK:1,2013-12-04T19:00:00Z,27.6010,-82.7510,81.67,1111122 
COMPS,ioos:station:USF.COMPS:EGK:1,2013-12-04T19:06:00Z,27.6010,-82.7510,81.69,1111122 